When you browse on this site, cookies collect data to enhance your experience and personalize the content and advertising you see.
Visit our Privacy Policy to learn more. By continuing to use the site, you agree to this use of cookies and data.
  • In Netherlands
  • List of Countries
  • For 7 days
  • Water Temperature
  • Satellite Maps
  • Weather Map
  • Weather Widgets
  • user-avatar
    Login

    Hourly Weather Bururi

    Today, 21 May, Tuesday

    Time Temperature Precipitation Wind Pressure Humidity
    00:00 +16°C° 0.4 mm 1 mps 617 mmHg 90%
    01:00 +16°C° 0.4 mm 1 mps 617 mmHg 90%
    02:00 +16°C° 0 mm 1 mps 616 mmHg 90%
    03:00 +16°C° 0.2 mm 1 mps 617 mmHg 89%
    04:00 +16°C° 0.2 mm 1 mps 617 mmHg 89%
    05:00 +16°C° 0.2 mm 1 mps 617 mmHg 88%
    06:00 +18°C° 0.3 mm 1 mps 617 mmHg 87%
    07:00 +19°C° 0.3 mm 1 mps 618 mmHg 86%
    08:00 +19°C° 0 mm 2 mps 619 mmHg 83%
    09:00 +21°C° 0.6 mm 1 mps 619 mmHg 81%
    10:00 +22°C° 0.6 mm 1 mps 619 mmHg 80%
    11:00 +22°C° 0.6 mm 1 mps 619 mmHg 78%
    12:00 +23°C° 0.6 mm 1 mps 618 mmHg 77%
    13:00 +23°C° 0.6 mm 1 mps 618 mmHg 75%
    14:00 +23°C° 0 mm 1 mps 617 mmHg 74%
    15:00 +23°C° 0.6 mm 1 mps 617 mmHg 77%
    16:00 +22°C° 0.6 mm 1 mps 617 mmHg 80%
    17:00 +21°C° 0.6 mm 1 mps 616 mmHg 83%
    18:00 +20°C° 0.7 mm 1 mps 616 mmHg 87%
    19:00 +19°C° 0.7 mm 1 mps 616 mmHg 90%
    20:00 +18°C° 0.7 mm 1 mps 616 mmHg 93%
    21:00 +16°C° 0.3 mm 1 mps 617 mmHg 93%
    22:00 +16°C° 0.3 mm 1 mps 617 mmHg 93%
    23:00 +16°C° 0.3 mm 1 mps 617 mmHg 93%

    Tomorrow, 22 May, Wednesday

    Time Temperature Precipitation Wind Pressure Humidity
    00:00 +16°C° 0 mm 1 mps 617 mmHg 92%
    01:00 +16°C° 0 mm 1 mps 616 mmHg 91%
    02:00 +16°C° 0 mm 1 mps 616 mmHg 90%
    03:00 +15°C° 0 mm 1 mps 616 mmHg 90%
    04:00 +15°C° 0 mm 1 mps 616 mmHg 89%
    05:00 +15°C° 0 mm 1 mps 616 mmHg 89%
    06:00 +18°C° 0 mm 1 mps 616 mmHg 87%
    07:00 +19°C° 0 mm 1 mps 617 mmHg 84%
    08:00 +19°C° 0 mm 2 mps 618 mmHg 82%
    09:00 +20°C° 0.1 mm 2 mps 618 mmHg 78%
    10:00 +21°C° 0.1 mm 2 mps 618 mmHg 75%
    11:00 +23°C° 0.1 mm 1 mps 619 mmHg 72%
    12:00 +23°C° 0.2 mm 2 mps 618 mmHg 72%
    13:00 +23°C° 0.2 mm 2 mps 617 mmHg 73%
    14:00 +23°C° 0.2 mm 2 mps 617 mmHg 73%
    15:00 +23°C° 0.3 mm 1 mps 616 mmHg 76%
    16:00 +22°C° 0.3 mm 1 mps 616 mmHg 79%
    17:00 +22°C° 0.3 mm 1 mps 616 mmHg 82%
    18:00 +20°C° 1.2 mm 1 mps 616 mmHg 86%
    19:00 +19°C° 1.2 mm 1 mps 616 mmHg 90%
    20:00 +18°C° 1.2 mm 1 mps 616 mmHg 94%
    21:00 +18°C° 0.9 mm 1 mps 616 mmHg 93%
    22:00 +16°C° 0.9 mm 1 mps 617 mmHg 93%
    23:00 +16°C° 0.9 mm 1 mps 617 mmHg 92%

    Day after tomorrow, 23 May, Thursday

    Time Temperature Precipitation Wind Pressure Humidity
    00:00 +16°C° 0.1 mm 1 mps 616 mmHg 91%
    01:00 +16°C° 0.1 mm 1 mps 616 mmHg 90%
    02:00 +16°C° 0.1 mm 1 mps 616 mmHg 89%
    03:00 +16°C° 0.1 mm 1 mps 616 mmHg 89%
    04:00 +16°C° 0.1 mm 1 mps 616 mmHg 89%
    05:00 +16°C° 0.1 mm 2 mps 616 mmHg 89%
    06:00 +17°C° 0.2 mm 2 mps 616 mmHg 88%
    07:00 +18°C° 0.2 mm 2 mps 617 mmHg 86%
    08:00 +19°C° 0.2 mm 2 mps 618 mmHg 85%
    09:00 +19°C° 0.2 mm 2 mps 618 mmHg 82%
    10:00 +20°C° 0.2 mm 2 mps 618 mmHg 80%
    11:00 +22°C° 0.2 mm 1 mps 619 mmHg 78%
    12:00 +22°C° 0.4 mm 1 mps 618 mmHg 76%
    13:00 +23°C° 0.4 mm 1 mps 617 mmHg 74%
    14:00 +23°C° 0.4 mm 2 mps 617 mmHg 72%
    15:00 +23°C° 0.5 mm 1 mps 616 mmHg 75%
    16:00 +22°C° 0.5 mm 1 mps 616 mmHg 79%
    17:00 +22°C° 0.5 mm 1 mps 616 mmHg 82%
    18:00 +20°C° 0.7 mm 1 mps 616 mmHg 85%
    19:00 +19°C° 0.7 mm 1 mps 616 mmHg 88%
    20:00 +18°C° 0.7 mm 1 mps 616 mmHg 91%
    21:00 +18°C° 0.6 mm 1 mps 617 mmHg 91%
    22:00 +18°C° 0.6 mm 1 mps 617 mmHg 90%
    23:00 +16°C° 0.6 mm 1 mps 617 mmHg 89%

    24 May, Friday

    Time Temperature Precipitation Wind Pressure Humidity
    00:00 +16°C° 0.5 mm 1 mps 617 mmHg 89%
    01:00 +18°C° 0.5 mm 1 mps 617 mmHg 89%
    02:00 +18°C° 0.5 mm 1 mps 616 mmHg 89%
    03:00 +16°C° 0.3 mm 1 mps 616 mmHg 90%
    04:00 +16°C° 0.3 mm 1 mps 616 mmHg 90%
    05:00 +16°C° 0.3 mm 1 mps 616 mmHg 91%
    06:00 +17°C° 0.2 mm 2 mps 617 mmHg 89%
    07:00 +18°C° 0.2 mm 2 mps 618 mmHg 87%
    08:00 +18°C° 0.2 mm 2 mps 618 mmHg 86%
    09:00 +20°C° 0.1 mm 2 mps 619 mmHg 82%
    10:00 +22°C° 0.1 mm 1 mps 619 mmHg 78%
    11:00 +23°C° 0.1 mm 1 mps 619 mmHg 74%
    12:00 +23°C° 0.2 mm 1 mps 618 mmHg 73%
    13:00 +23°C° 0.2 mm 1 mps 618 mmHg 72%
    14:00 +24°C° 0.2 mm 1 mps 617 mmHg 70%
    15:00 +23°C° 0.3 mm 1 mps 616 mmHg 74%
    16:00 +22°C° 0.3 mm 1 mps 616 mmHg 78%
    17:00 +21°C° 0.3 mm 1 mps 616 mmHg 83%
    18:00 +20°C° 1.5 mm 1 mps 616 mmHg 86%
    19:00 +19°C° 1.5 mm 1 mps 616 mmHg 90%
    20:00 +18°C° 1.5 mm 1 mps 617 mmHg 94%
    21:00 +16°C° 1 mm 1 mps 617 mmHg 93%
    22:00 +16°C° 1 mm 1 mps 617 mmHg 93%
    23:00 +16°C° 1 mm 1 mps 617 mmHg 92%

    25 May, Saturday

    Time Temperature Precipitation Wind Pressure Humidity
    00:00 +16°C° 0.4 mm 1 mps 616 mmHg 92%
    01:00 +16°C° 0.4 mm 1 mps 616 mmHg 91%
    02:00 +16°C° 0.4 mm 1 mps 616 mmHg 91%
    03:00 +16°C° 0.5 mm 1 mps 616 mmHg 91%
    04:00 +16°C° 0.5 mm 1 mps 616 mmHg 91%
    05:00 +16°C° 0.5 mm 1 mps 616 mmHg 92%
    06:00 +17°C° 0.3 mm 2 mps 617 mmHg 90%
    07:00 +18°C° 0.3 mm 2 mps 618 mmHg 89%
    08:00 +18°C° 0.3 mm 2 mps 619 mmHg 88%
    09:00 +19°C° 0.4 mm 2 mps 619 mmHg 85%
    10:00 +20°C° 0.4 mm 2 mps 619 mmHg 82%
    11:00 +22°C° 0.4 mm 1 mps 619 mmHg 80%
    12:00 +22°C° 0.7 mm 1 mps 618 mmHg 80%
    13:00 +21°C° 0.7 mm 1 mps 617 mmHg 81%
    14:00 +21°C° 0.7 mm 1 mps 616 mmHg 82%
    15:00 +21°C° 0.5 mm 1 mps 616 mmHg 83%
    16:00 +21°C° 0.5 mm 1 mps 616 mmHg 84%
    17:00 +21°C° 0.5 mm 1 mps 616 mmHg 85%
    18:00 +20°C° 0.6 mm 1 mps 616 mmHg 87%
    19:00 +19°C° 0.6 mm 1 mps 616 mmHg 90%
    20:00 +18°C° 0.6 mm 1 mps 617 mmHg 93%
    21:00 +16°C° 0.5 mm 1 mps 617 mmHg 92%
    22:00 +16°C° 0.5 mm 1 mps 617 mmHg 92%
    23:00 +16°C° 0.5 mm 1 mps 617 mmHg 91%

    26 May, Sunday

    Time Temperature Precipitation Wind Pressure Humidity
    00:00 +16°C° 0.5 mm 1 mps 617 mmHg 91%
    01:00 +16°C° 0.5 mm 1 mps 616 mmHg 91%
    02:00 +16°C° 0.5 mm 1 mps 616 mmHg 92%
    03:00 +16°C° 0.3 mm 1 mps 616 mmHg 92%
    04:00 +16°C° 0.3 mm 1 mps 616 mmHg 92%
    05:00 +16°C° 0.3 mm 1 mps 616 mmHg 92%
    06:00 +18°C° 0.1 mm 1 mps 617 mmHg 90%
    07:00 +17°C° 0.1 mm 2 mps 617 mmHg 88%
    08:00 +18°C° 0.1 mm 2 mps 618 mmHg 87%
    09:00 +18°C° 0.2 mm 2 mps 618 mmHg 85%
    10:00 +19°C° 0.2 mm 2 mps 618 mmHg 82%
    11:00 +21°C° 0.2 mm 1 mps 618 mmHg 80%
    12:00 +21°C° 0.5 mm 1 mps 617 mmHg 79%
    13:00 +22°C° 0.5 mm 1 mps 616 mmHg 78%
    14:00 +21°C° 0.5 mm 2 mps 616 mmHg 77%
    15:00 +22°C° 0.5 mm 1 mps 616 mmHg 79%
    16:00 +21°C° 0.5 mm 1 mps 616 mmHg 82%
    17:00 +21°C° 0.5 mm 1 mps 615 mmHg 84%
    18:00 +20°C° 0.7 mm 1 mps 616 mmHg 87%
    19:00 +19°C° 0.7 mm 1 mps 616 mmHg 89%
    20:00 +18°C° 0.7 mm 1 mps 616 mmHg 92%
    21:00 +18°C° 0.6 mm 1 mps 616 mmHg 91%
    22:00 +18°C° 0.7 mm 1 mps 616 mmHg 91%
    23:00 +18°C° 0.7 mm 1 mps 617 mmHg 91%
    Show more